This demonstration page uses our WeatherBlox Daily Observations layout. Learn more.

Left ArrowRight Arrow

36.17497, -115.13722

Hourly Observations for August 11, 2022

Temp ( °F °C ) Dew Point ( °F °C ) Humidity (%) Winds ( mph kmh ) Pressure ( in mb ) Visibility ( mi km ) Precip ( " mm )
12:53 am 00:53 Clear 86 30 60 15.6 42 42 NNW 3 6 29.99 1016 10 16 0.00 0.00
1:53 am 01:53 Clear 86 30 60 15.6 42 42 NW 3 6 29.98 1015 10 16 0.00 0.00
2:53 am 02:53 Clear 84 28.9 60 15.6 45 45 Calm 29.98 1015 10 16 0.00 0.00
3:53 am 03:53 Clear 84 28.9 60 15.6 45 45 Calm 29.99 1016 10 16 0.00 0.00
4:53 am 04:53 Clear 83 28.3 60 15.6 46 46 WNW 5 7 30.01 1016 10 16 0.00 0.00
5:53 am 05:53 Clear 83 28.3 61 16.1 48 48 W 3 6 30.01 1016 10 16 0.00 0.00
6:53 am 06:53 Sunny 84 28.9 61 16.1 46 46 NW 3 6 30.01 1016 10 16 0.00 0.00
7:53 am 07:53 Sunny 87 30.6 61 16.1 42 42 Calm 30.02 1017 10 16 0.00 0.00
8:53 am 08:53 Sunny 88 31.1 61 16.1 41 41 ESE 6 9 30.03 1017 10 16 0.00 0.00
9:53 am 09:53 Sunny 90 32.2 62 16.7 40 40 ESE 6 9 30.03 1017 10 16 0.00 0.00
10:53 am 10:53 Sunny 93 33.9 62 16.7 36 36 Calm 30.02 1017 10 16 0.00 0.00
11:53 am 11:53 Sunny 96 35.6 61 16.1 31 31 SE 13 20 30.00 1016 10 16 0.00 0.00
12:53 pm 12:53 Sunny 97 36.1 62 16.7 32 32 undefined N/A 29.98 1015 10 16 0.00 0.00
1:53 pm 13:53 Sunny 98 36.7 60 15.6 29 29 E 6 9 29.95 1014 10 16 0.00 0.00
2:53 pm 14:53 Sunny 98 36.7 60 15.6 29 29 VRB 3 6 29.93 1014 10 16 0.00 0.00
3:53 pm 15:53 Sunny 99 37.2 60 15.6 28 28 SSW 8 13 29.91 1013 10 16 0.00 0.00
4:53 pm 16:53 Sunny 100 37.8 60 15.6 27 27 undefined N/A 29.88 1012 10 16 0.00 0.00
5:53 pm 17:53 Sunny 99 37.2 59 15 27 27 SSE 7 11 29.87 1012 10 16 0.00 0.00
6:53 pm 18:53 Sunny 99 37.2 58 14.4 26 26 SE 8 13 29.88 1012 10 16 0.00 0.00
7:53 pm 19:53 Mostly Clear 98 36.7 57 13.9 26 26 SSE 6 9 29.89 1012 10 16 0.00 0.00
8:17 pm 20:17 Cloudy with Nearby Thunderstorms 98 36.7 57 13.9 26 26 S 5 7 29.75 1007 10 16 0.00 0.00
8:53 pm 20:53 Cloudy with Thunderstorms 87 30.6 65 18.3 48 48 E 37 59 29.93 1014 6 10 0.05 1.27
9:00 pm 21:00 Cloudy with Strong Thunderstorms 84 28.9 61 16.1 46 46 ENE 21 33 29.86 1011 2 3 0.21 5.33
9:09 pm 21:09 Cloudy with Strong Thunderstorms 85 29.4 60 15.6 43 43 SE 23 37 29.84 1011 1 2 0.52 13.21
9:15 pm 21:15 Cloudy with Strong Thunderstorms 85 29.4 60 15.6 43 43 S 16 26 29.86 1011 2 3 0.62 15.75
9:29 pm 21:29 Cloudy with Thunderstorms 80 26.7 64 17.8 58 58 SSW 25 41 29.86 1011 4 6 0.73 18.54
9:53 pm 21:53 Partly Cloudy with Thunderstorms 81 27.2 61 16.1 51 51 S 14 22 29.96 1015 8 13 0.76 19.30
10:06 pm 22:06 Partly Cloudy with Nearby Thunderstorms 81 27.2 62 16.7 53 53 SSE 15 24 29.86 1011 10 16 0.01 0.13
10:27 pm 22:27 Mostly Cloudy with Light Rain 82 27.8 64 17.8 55 55 W 13 20 29.86 1011 10 16 0.01 0.13
10:53 pm 22:53 Mostly Cloudy 84 28.9 62 16.7 48 48 W 6 9 29.95 1014 10 16 0.01 0.13
11:53 pm 23:53 Clear 83 28.3 64 17.8 53 53 ENE 3 6 29.94 1014 10 16 0.01 0.13

Powered by AerisWeather